DW4240 Weather Reports


time (UTC)temp
C
wind
direction
speed
KPH
gust
KPH
rain 1hr
cm
rain 24hr
cm
rain mn
cm
humidity
%
barometer
mb
20260507093036 7 42 0.0 8.0 0.00 0.46 0.33 96 1013.4
20260507091529 7 40 0.0 6.4 0.00 0.46 0.33 96 1013.3
20260507090033 7 40 0.0 8.0 0.03 0.46 0.33 96 1013.1
20260507084528 7 40 0.0 6.4 0.03 0.48 0.33 96 1012.9
20260507083037 7 0 0.0 3.2 0.00 0.46 0.30 96 1012.9
20260507081530 7 0 0.0 4.8 0.00 0.46 0.30 97 1012.7
20260507080028 7 38 0.0 4.8 0.00 0.46 0.28 96 1012.7
20260507074530 7 0 0.0 3.2 0.00 0.51 0.28 96 1012.3
20260507073028 7 0 0.0 3.2 0.00 0.51 0.28 96 1012.2
20260507071535 7 0 0.0 3.2 0.00 0.51 0.28 96 1012.1
20260507070031 7 38 0.0 4.8 0.00 0.51 0.28 96 1011.8
20260507064529 7 38 0.0 3.2 0.00 0.64 0.28 96 1011.8
20260507063029 7 0 0.0 3.2 0.00 0.64 0.28 96 1011.5
20260507061530 7 38 0.0 3.2 0.00 0.64 0.28 96 1011.3
20260507060028 7 0 0.0 3.2 0.00 0.64 0.28 96 1011.0
20260507054528 7 0 0.0 3.2 0.00 0.97 0.28 96 1010.8
20260507053029 7 0 0.0 3.2 0.00 0.97 0.28 96 1010.5
20260507051528 7 0 0.0 4.8 0.00 0.97 0.28 96 1010.3
20260507050029 6 0 0.0 3.2 0.00 0.94 0.28 96 1010.1
20260507044526 7 0 0.0 4.8 0.00 1.19 0.28 96 1009.9
20260507043034 7 38 1.6 4.8 0.00 1.19 0.28 96 1009.9
20260507041529 7 44 1.6 8.0 0.00 1.19 0.28 96 1009.8
20260507040027 7 31 0.0 8.0 0.00 1.19 0.28 96 1009.7
20260507034530 7 34 1.6 9.7 0.03 1.40 0.28 96 1009.7
20260507033028 7 30 1.6 4.8 0.00 1.40 0.25 96 1009.6
20260507031528 7 0 0.0 9.7 0.00 1.40 0.25 96 1009.5
20260507030032 7 43 1.6 8.0 0.03 1.40 0.25 96 1009.5
20260507024529 7 34 1.6 9.7 0.00 1.73 0.23 96 1009.3
20260507023030 8 0 0.0 3.2 0.03 1.73 0.23 96 1009.1
20260507021528 8 0 0.0 8.0 0.08 1.73 0.23 96 1008.9
20260507020033 8 42 0.0 4.8 0.08 1.70 0.20 96 1008.7
20260507014528 8 0 0.0 3.2 0.08 2.16 0.20 96 1008.5
20260507013034 8 0 0.0 4.8 0.08 2.16 0.18 96 1008.5
20260507011537 8 0 1.6 4.8 0.08 2.08 0.13 96 1008.2
20260507010030 8 0 0.0 3.2 0.08 2.08 0.13 96 1008.3
20260507004527 9 0 0.0 3.2 0.08 2.29 0.10 96 1008.1
20260507003029 9 0 0.0 3.2 0.05 2.26 0.08 96 1008.0
20260507001533 9 0 0.0 3.2 0.00 2.21 0.03 96 1007.9
20260507000028 9 42 0.0 4.8 0.00 2.21 0.03 96 1007.9
20260506234540 9 0 0.0 6.4 0.00 2.29 0.03 96 1007.9
20260506233028 9 0 0.0 6.4 0.00 2.29 0.03 96 1007.9
20260506231533 9 34 0.0 3.2 0.00 2.29 0.03 96 1007.9
20260506230030 9 34 1.6 4.8 0.03 2.29 0.03 96 1007.7
20260506224531 9 34 1.6 4.8 0.00 2.26 0.00 96 1007.5
20260506223027 10 47 1.6 9.7 0.00 2.26 0.00 96 1007.4
20260506221529 10 47 0.0 3.2 0.03 2.26 0.00 96 1007.5
20260506220028 10 41 1.6 8.0 0.00 2.24 0.00 96 1007.3
20260506214529 10 42 0.0 4.8 0.00 2.24 2.24 96 1007.4
20260506213030 10 0 0.0 8.0 0.00 2.24 2.24 96 1007.4
20260506211529 10 0 0.0 4.8 0.00 2.24 2.24 96 1007.2
20260506210030 10 0 0.0 4.8 0.00 2.24 2.24 96 1007.0
20260506204530 10 0 0.0 4.8 0.00 2.24 2.24 96 1006.8
20260506203034 11 42 0.0 3.2 0.00 2.24 2.24 96 1006.7
20260506201530 11 0 0.0 4.8 0.00 2.24 2.24 96 1006.7
20260506200031 11 0 0.0 6.4 0.00 2.24 2.24 96 1006.6
20260506194530 11 0 0.0 0.0 0.00 2.24 2.24 96 1006.6
20260506193028 11 41 0.0 4.8 0.00 2.24 2.24 96 1006.4
20260506191529 11 0 0.0 3.2 0.00 2.24 2.24 96 1006.3
20260506190037 11 0 0.0 0.0 0.00 2.24 2.24 96 1006.0
20260506184529 11 0 0.0 0.0 0.00 2.24 2.24 96 1006.0
20260506183030 11 0 0.0 6.4 0.00 2.24 2.24 96 1005.8
20260506181530 11 0 0.0 3.2 0.00 2.24 2.24 96 1005.6
20260506180031 11 0 0.0 3.2 0.00 2.24 2.24 96 1005.6
20260506174530 11 0 0.0 3.2 0.00 2.24 2.24 96 1005.7
20260506173037 11 41 0.0 3.2 0.00 2.24 2.24 96 1005.5
20260506171602 11 0 0.0 1.6 0.00 2.24 2.24 96 1005.5
20260506170029 11 0 0.0 4.8 0.00 2.24 2.24 96 1005.5
20260506164528 11 0 0.0 3.2 0.00 2.24 2.24 96 1005.5
20260506163045 11 0 0.0 0.0 0.00 2.24 2.24 96 1005.4
20260506161530 11 0 0.0 3.2 0.05 2.24 2.24 96 1005.4
20260506160028 11 0 0.0 3.2 0.08 2.24 2.24 96 1005.3
20260506154535 11 0 0.0 3.2 0.05 2.21 2.21 96 1005.3
20260506153032 11 0 0.0 3.2 0.05 2.21 2.21 96 1005.4
20260506151537 11 0 0.0 4.8 0.00 2.16 2.16 96 1005.5
20260506150028 11 0 0.0 3.2 0.00 2.16 2.16 96 1005.5
20260506144529 11 0 0.0 3.2 0.03 2.16 2.16 96 1005.5
20260506143028 10 0 0.0 3.2 0.03 2.16 2.16 96 1005.5
20260506141530 11 0 0.0 3.2 0.03 2.16 2.16 96 1005.5
20260506140033 10 0 0.0 4.8 0.00 2.13 2.13 96 1005.6
20260506134528 10 0 0.0 3.2 0.00 2.11 2.11 96 1005.5
20260506133029 10 0 0.0 3.2 0.00 2.11 2.11 96 1005.6
20260506131535 10 39 0.0 3.2 0.00 2.11 2.11 96 1005.5
20260506130030 10 0 0.0 3.2 0.00 2.11 2.11 96 1005.6
20260506124528 10 0 0.0 4.8 0.00 2.11 2.11 96 1005.6
20260506123030 10 0 0.0 3.2 0.00 2.11 2.11 96 1005.5
20260506121529 10 0 0.0 4.8 0.00 2.11 2.11 96 1005.5
20260506120029 10 0 0.0 3.2 0.00 2.11 2.11 96 1005.4
20260506114527 10 0 0.0 3.2 0.00 2.11 2.11 96 1005.3
20260506113028 10 0 0.0 3.2 0.00 2.11 2.11 96 1005.3
20260506111531 10 0 0.0 3.2 0.00 2.11 2.11 96 1005.5
20260506110029 10 0 0.0 3.2 0.00 2.11 2.11 96 1005.3
20260506104528 10 42 0.0 4.8 0.00 2.11 2.11 97 1005.3
20260506103028 10 42 0.0 3.2 0.00 2.11 2.11 96 1005.3
20260506101528 10 0 0.0 4.8 0.00 2.11 2.11 97 1005.4
20260506100031 9 0 1.6 6.4 0.00 2.11 2.11 96 1005.3
20260506094526 9 38 0.0 4.8 0.00 2.11 2.11 96 1005.3